Tracking 31027 objects as of 19-Jul-2025
HD Live streaming from Space Station
objects crossing your sky now

COSMOS 1275 DEB

Track COSMOS 1275 DEB now!
10-day predictions


NORAD ID: 18902
Int'l Code: 1981-053MG
Perigee: 723.4 km
Apogee: 741.7 km
Inclination: 82.9 °
Period: 99.3 minutes
Semi major axis: 7103 km
RCS: 0.0086 m2 (small)
Launch date: June 4, 1981
Source: Commonwealth of Independent States (former USSR) (CIS)
Launch site: PLESETSK MISSILE AND SPACE COMPLEX (PKMTR)

Note: This is SATELLITE DEBRIS
Your satellite tracking list
SES-6
Track 1 satellite(s)




NASA's NSSDC Master Catalog

Two Line Element Set (TLE):
1 18902U 81053MB  25199.35081086  .00004652  00000-0  11938-2 0  9995
2 18902  82.9459 222.1091 0012854 197.6496 162.4257 14.50076084616801
Source of the keplerian elements: AFSPC